FENGYUN 1C DEB, 37588

Orbit data source: Space-Track

FENGYUN 1C DEB, 37588 is space debris in SSO originally from a launch on Mon, 10 May 1999 UTC launched from the Taiyaun Space Center, China (TSC). Fengyun 1C debris stems from the Chinese weather satellite Fengyun-1C, which was intentionally destroyed by a Chinese anti-satellite missile in 2007. This event dramatically increased the amount of space debris, with thousands of trackable fragments posing hazards to satellites and human spaceflight. The Fengyun 1C debris cloud has become a focal point in discussions about space sustainability and the need for international regulations to prevent the creation of new debris.

Loading next visibility...
Identifier
37588, 1999-025EKG
Orbit
SSO
Country
Flag of CNCN / PRC
Related business
Manufacturer
Unknown
Mission
Spacecraft
Bus & Motor
Unknown
Mass
Unknown
Launch date (UTC)
1999-05-10 (27 years ago)
Launch vehicle
Unknown
Launch site
Taiyaun Space Center, China (TSC)
Object type
Payload
Rocket body
Debris
Shape & HBR
Unknown shape, 0.1 m
Radar Cross Section
Small (<0.1 m²)

Expand to show TLE details & history
Last TLE update: 3 months ago

TLE from 3 months ago
0 FENGYUN 1C DEB
1 37588U 99025EKG 26023.87448420  .00004059  00000-0  20956-2 0  9998
2 37588  98.1448  72.3571 0081423 294.0115 244.6003 14.13832324588485
Epoch: 2026-01-23T20:59Z
TLE epoch observation values (Epoch: 2026-01-23T20:59:15.434Z)
Latitude
2.10172°
Longitude
174.63511°
Altitude
874.587 km
Speed
7.402 km/s
True Right ascension
16h 50m 37s
True Declination
2° 05' 22"
Sunlit
Object was in daylight at epoch
Visualization orbit readout
Latitude
Unknown
Longitude
Unknown
Altitude
Unknown
Speed
Unknown
Apparent Right ascension
Unknown
Apparent Declination
Unknown
Sunlit
N/A
Visualization observer readout
Local Sidereal Time
14:08:37
Azimuth
Unknown
Elevation
Unknown
Doppler factor
Unknown
Orbital elements
Apogee altitude
902.228 km
Perigee altitude
784.627 km
Semi-major axis
7,221.565 km
Eccentricity
0.00814
Inclination
98.1448°
RAAN
72.3571°
Arg. of periapsis
294.0115°
True anomaly
243.76115°
Mean anomaly
244.6003°
Eccentric anomaly
244.18035°
Mean motion
3.53668 °/min
Orbital period
101.79 mins
BSTAR
0.0020956
Loading maneuver chart data...
Computing Atmospheric mass density...
Loading historical data...
Loading historical data...
Loading historical data...
Loading historical data...
Loading historical data...
Loading historical data...
Loading historical data...

Documentation

Showing up to 5 results
|